| time (UTC) | temp F | wind direction | speed knots | gust knots | rain 1hr in | rain 24hr in | rain mn in | humidity % | barometer mb |
| 20260508163010 | 62 | 324 | 2.6 | 5.2 | 0.00 | 0.00 | 0.00 | 52 | 1017.1 |
| 20260508162011 | 63 | 334 | 1.7 | 4.3 | 0.00 | 0.00 | 0.00 | 52 | 1017.0 |
| 20260508161010 | 62 | 323 | 2.6 | 6.1 | 0.00 | 0.00 | 0.00 | 52 | 1017.0 |
| 20260508160011 | 63 | 338 | 2.6 | 7.0 | 0.00 | 0.00 | 0.00 | 50 | 1017.0 |
| 20260508154011 | 63 | 314 | 3.5 | 7.8 | 0.00 | 0.00 | 0.00 | 50 | 1016.9 |
| 20260508153010 | 62 | 330 | 1.7 | 5.2 | 0.00 | 0.00 | 0.00 | 51 | 1016.9 |
| 20260508152010 | 62 | 329 | 2.6 | 7.0 | 0.00 | 0.00 | 0.00 | 51 | 1017.0 |
| 20260508151010 | 62 | 329 | 2.6 | 7.0 | 0.00 | 0.00 | 0.00 | 51 | 1017.0 |
| 20260508150010 | 62 | 319 | 2.6 | 5.2 | 0.00 | 0.00 | 0.00 | 50 | 1017.1 |
| 20260508145010 | 62 | 339 | 0.9 | 4.3 | 0.00 | 0.00 | 0.00 | 51 | 1017.1 |
| 20260508144012 | 62 | 36 | 1.7 | 4.3 | 0.00 | 0.00 | 0.00 | 53 | 1017.1 |
| 20260508143011 | 62 | 329 | 1.7 | 4.3 | 0.00 | 0.00 | 0.00 | 51 | 1017.2 |
| 20260508141013 | 62 | 40 | 1.7 | 7.8 | 0.00 | 0.00 | 0.00 | 51 | 1017.4 |
| 20260508140013 | 62 | 323 | 1.7 | 7.0 | 0.00 | 0.00 | 0.00 | 49 | 1017.5 |
| 20260508135013 | 63 | 246 | 1.7 | 5.2 | 0.00 | 0.00 | 0.00 | 50 | 1017.6 |
| 20260508134013 | 65 | 63 | 3.5 | 8.7 | 0.00 | 0.00 | 0.00 | 49 | 1017.7 |
| 20260508133013 | 64 | 265 | 2.6 | 7.8 | 0.00 | 0.00 | 0.00 | 51 | 1017.7 |
| 20260508132013 | 63 | 344 | 2.6 | 7.8 | 0.00 | 0.00 | 0.00 | 50 | 1017.7 |
| 20260508131013 | 61 | 355 | 2.6 | 7.0 | 0.00 | 0.00 | 0.00 | 52 | 1017.7 |
| 20260508125013 | 62 | 360 | 2.6 | 7.8 | 0.00 | 0.00 | 0.00 | 53 | 1018.0 |
| 20260508124013 | 61 | 11 | 0.9 | 5.2 | 0.00 | 0.00 | 0.00 | 52 | 1018.0 |
| 20260508123013 | 60 | 298 | 2.6 | 5.2 | 0.00 | 0.00 | 0.00 | 53 | 1018.0 |
| 20260508121012 | 60 | 284 | 1.7 | 5.2 | 0.00 | 0.00 | 0.00 | 52 | 1018.0 |
| 20260508120012 | 60 | 52 | 1.7 | 5.2 | 0.00 | 0.00 | 0.00 | 54 | 1018.0 |
| 20260508115013 | 60 | 309 | 0.9 | 7.0 | 0.00 | 0.00 | 0.00 | 53 | 1018.0 |
| 20260508114012 | 61 | 28 | 2.6 | 7.8 | 0.00 | 0.00 | 0.00 | 52 | 1018.0 |
| 20260508113012 | 61 | 350 | 2.6 | 6.1 | 0.00 | 0.00 | 0.00 | 52 | 1018.0 |
| 20260508112012 | 62 | 45 | 1.7 | 6.1 | 0.00 | 0.00 | 0.00 | 54 | 1018.2 |
| 20260508111012 | 61 | 330 | 2.6 | 6.1 | 0.00 | 0.00 | 0.00 | 57 | 1018.2 |
| 20260508104012 | 60 | 69 | 1.7 | 4.3 | 0.00 | 0.00 | 0.00 | 56 | 1018.5 |
| 20260508103013 | 60 | 138 | 1.7 | 5.2 | 0.00 | 0.00 | 0.00 | 61 | 1018.3 |
| 20260508102012 | 58 | 271 | 0.9 | 3.5 | 0.00 | 0.00 | 0.00 | 64 | 1018.4 |
| 20260508101012 | 57 | 327 | 0.9 | 3.5 | 0.00 | 0.00 | 0.00 | 64 | 1018.5 |
| 20260508100012 | 57 | 327 | 0.9 | 3.5 | 0.00 | 0.00 | 0.00 | 63 | 1018.5 |
| 20260508095012 | 56 | 325 | 0.9 | 3.5 | 0.00 | 0.00 | 0.00 | 67 | 1018.5 |
| 20260508094012 | 57 | 330 | 0.9 | 4.3 | 0.00 | 0.00 | 0.00 | 64 | 1018.6 |
| 20260508093012 | 58 | 328 | 0.9 | 4.3 | 0.00 | 0.00 | 0.00 | 64 | 1018.6 |
| 20260508092012 | 57 | 302 | 0.9 | 4.3 | 0.00 | 0.00 | 0.00 | 65 | 1018.7 |
| 20260508091011 | 57 | 100 | 1.7 | 5.2 | 0.00 | 0.00 | 0.00 | 65 | 1018.7 |
| 20260508090011 | 57 | 34 | 0.9 | 7.0 | 0.00 | 0.00 | 0.00 | 70 | 1018.7 |
| 20260508085012 | 56 | 327 | 1.7 | 6.1 | 0.00 | 0.00 | 0.00 | 69 | 1018.6 |
| 20260508084011 | 55 | 64 | 2.6 | 7.0 | 0.00 | 0.00 | 0.00 | 68 | 1018.6 |
| 20260508083011 | 54 | 86 | 0.9 | 4.3 | 0.00 | 0.00 | 0.00 | 72 | 1018.7 |
| 20260508082012 | 53 | 53 | 1.7 | 4.3 | 0.00 | 0.00 | 0.00 | 72 | 1018.8 |
| 20260508081012 | 53 | 32 | 1.7 | 3.5 | 0.00 | 0.00 | 0.00 | 73 | 1018.9 |
| 20260508074012 | 52 | 338 | 3.5 | 4.3 | 0.00 | 0.00 | 0.00 | 78 | 1019.0 |
| 20260508073012 | 52 | 346 | 0.9 | 2.6 | 0.00 | 0.00 | 0.00 | 78 | 1019.0 |
| 20260508071011 | 51 | 342 | 0.0 | 3.5 | 0.00 | 0.00 | 0.00 | 78 | 1018.8 |
| 20260508070011 | 51 | 334 | 0.0 | 2.6 | 0.00 | 0.00 | 0.00 | 79 | 1018.8 |
| 20260508065011 | 50 | 332 | 0.0 | 1.7 | 0.00 | 0.00 | 0.00 | 81 | 1018.6 |
| 20260508064011 | 50 | 332 | 0.0 | 1.7 | 0.00 | 0.00 | 0.00 | 82 | 1018.6 |
| 20260508063012 | 49 | 331 | 0.0 | 1.7 | 0.00 | 0.00 | 0.00 | 83 | 1018.4 |
| 20260508062011 | 49 | 331 | 0.9 | 2.6 | 0.00 | 0.00 | 0.00 | 84 | 1018.3 |
| 20260508061011 | 49 | 332 | 0.9 | 4.3 | 0.00 | 0.00 | 0.00 | 84 | 1018.1 |
| 20260508060011 | 48 | 297 | 0.9 | 4.3 | 0.00 | 0.00 | 0.00 | 85 | 1018.0 |
| 20260508055011 | 48 | 280 | 0.9 | 3.5 | 0.00 | 0.00 | 0.00 | 85 | 1018.0 |
| 20260508054011 | 48 | 274 | 0.0 | 2.6 | 0.00 | 0.00 | 0.00 | 86 | 1017.9 |
| 20260508053011 | 48 | 273 | 0.9 | 3.5 | 0.00 | 0.00 | 0.00 | 89 | 1017.8 |
| 20260508052011 | 48 | 292 | 1.7 | 3.5 | 0.00 | 0.00 | 0.00 | 90 | 1017.8 |
| 20260508051011 | 48 | 274 | 0.9 | 2.6 | 0.00 | 0.00 | 0.00 | 91 | 1017.8 |
| 20260508050011 | 47 | 274 | 0.0 | 0.9 | 0.00 | 0.00 | 0.00 | 91 | 1017.6 |
| 20260508045011 | 47 | 274 | 0.9 | 2.6 | 0.00 | 0.00 | 0.00 | 91 | 1017.6 |
| 20260508044011 | 47 | 281 | 1.7 | 3.5 | 0.00 | 0.00 | 0.00 | 91 | 1017.5 |
| 20260508043011 | 47 | 285 | 0.9 | 3.5 | 0.00 | 0.00 | 0.00 | 91 | 1017.5 |
| 20260508042011 | 47 | 286 | 0.0 | 1.7 | 0.00 | 0.00 | 0.00 | 91 | 1017.5 |
| 20260508041011 | 47 | 286 | 0.9 | 3.5 | 0.00 | 0.00 | 0.00 | 91 | 1017.5 |
| 20260508040011 | 47 | 286 | 0.9 | 2.6 | 0.00 | 0.00 | 0.00 | 91 | 1017.3 |
| 20260508035011 | 47 | 286 | 1.7 | 3.5 | 0.00 | 0.00 | 0.00 | 91 | 1017.3 |
| 20260508034010 | 47 | 269 | 0.9 | 3.5 | 0.00 | 0.00 | 0.00 | 91 | 1017.2 |
| 20260508033010 | 47 | 254 | 0.9 | 4.3 | 0.00 | 0.00 | 0.00 | 91 | 1017.2 |
| 20260508032010 | 47 | 257 | 0.0 | 1.7 | 0.00 | 0.00 | 0.00 | 91 | 1017.1 |
| 20260508031011 | 47 | 257 | 0.0 | 0.9 | 0.00 | 0.00 | 0.00 | 92 | 1017.1 |
| 20260508030010 | 47 | 257 | 0.0 | 1.7 | 0.00 | 0.00 | 0.00 | 92 | 1017.2 |
| 20260508025010 | 47 | 257 | 0.0 | 1.7 | 0.00 | 0.00 | 0.00 | 91 | 1017.2 |
| 20260508024010 | 46 | 257 | 0.0 | 1.7 | 0.00 | 0.00 | 0.00 | 90 | 1017.2 |
| 20260508023011 | 46 | 257 | 0.0 | 2.6 | 0.00 | 0.00 | 0.00 | 90 | 1017.2 |
| 20260508022010 | 46 | 257 | 0.0 | 0.9 | 0.00 | 0.00 | 0.00 | 88 | 1017.2 |
| 20260508021011 | 46 | 257 | 0.0 | 0.0 | 0.00 | 0.00 | 0.00 | 83 | 1017.2 |
| 20260508020010 | 46 | 257 | 0.0 | 0.0 | 0.00 | 0.00 | 0.00 | 83 | 1017.2 |
| 20260508015010 | 47 | 257 | 0.0 | 0.0 | 0.00 | 0.00 | 0.00 | 83 | 1017.1 |
| 20260508014010 | 47 | 257 | 0.0 | 1.7 | 0.00 | 0.00 | 0.00 | 83 | 1017.2 |
| 20260508013010 | 47 | 257 | 0.9 | 2.6 | 0.00 | 0.00 | 0.00 | 83 | 1017.2 |
| 20260508012010 | 48 | 257 | 0.0 | 1.7 | 0.00 | 0.00 | 0.00 | 83 | 1017.3 |
| 20260508011010 | 48 | 257 | 0.0 | 3.5 | 0.00 | 0.00 | 0.00 | 83 | 1017.2 |
| 20260508010010 | 48 | 256 | 0.0 | 0.0 | 0.00 | 0.00 | 0.00 | 83 | 1017.3 |
| 20260508005010 | 48 | 256 | 0.0 | 1.7 | 0.00 | 0.00 | 0.00 | 83 | 1017.4 |
| 20260508004010 | 48 | 256 | 0.9 | 2.6 | 0.00 | 0.00 | 0.00 | 83 | 1017.4 |
| 20260508003010 | 48 | 255 | 0.9 | 2.6 | 0.00 | 0.00 | 0.00 | 82 | 1017.5 |
| 20260508002010 | 49 | 262 | 0.0 | 0.0 | 0.00 | 0.00 | 0.00 | 82 | 1017.5 |
| 20260508001011 | 49 | 262 | 0.0 | 0.0 | 0.00 | 0.00 | 0.00 | 82 | 1017.5 |
| 20260508000010 | 49 | 262 | 0.9 | 2.6 | 0.00 | 0.00 | 0.00 | 82 | 1017.5 |
| 20260507235010 | 49 | 257 | 0.9 | 2.6 | 0.00 | 0.00 | 0.00 | 83 | 1017.6 |
| 20260507234010 | 49 | 257 | 0.0 | 0.0 | 0.00 | 0.00 | 0.00 | 83 | 1017.7 |
| 20260507233010 | 49 | 257 | 0.0 | 0.9 | 0.00 | 0.00 | 0.00 | 83 | 1017.6 |
| 20260507232009 | 49 | 257 | 0.9 | 1.7 | 0.00 | 0.00 | 0.00 | 83 | 1017.7 |
| 20260507231010 | 49 | 257 | 0.0 | 0.0 | 0.00 | 0.00 | 0.00 | 83 | 1017.6 |
| 20260507230010 | 49 | 257 | 0.0 | 0.0 | 0.00 | 0.00 | 0.00 | 83 | 1017.6 |
| 20260507225010 | 49 | 257 | 0.0 | 0.9 | 0.00 | 0.00 | 0.00 | 83 | 1017.6 |
| 20260507223010 | 49 | 257 | 0.0 | 0.9 | 0.00 | 0.00 | 0.00 | 82 | 1017.5 |
| 20260507222009 | 49 | 257 | 0.0 | 0.0 | 0.00 | 0.00 | 0.00 | 82 | 1017.4 |
| 20260507221010 | 49 | 257 | 0.0 | 1.7 | 0.00 | 0.00 | 0.00 | 82 | 1017.5 |
| 20260507220009 | 49 | 257 | 0.0 | 0.0 | 0.00 | 0.09 | 0.09 | 81 | 1017.3 |
| 20260507215017 | 49 | 257 | 0.0 | 0.0 | 0.00 | 0.09 | 0.09 | 81 | 1017.3 |
| 20260507214009 | 49 | 257 | 0.0 | 2.6 | 0.00 | 0.09 | 0.09 | 80 | 1017.3 |
| 20260507213009 | 49 | 257 | 1.7 | 2.6 | 0.00 | 0.09 | 0.09 | 80 | 1017.2 |
| 20260507212009 | 49 | 258 | 0.0 | 1.7 | 0.00 | 0.09 | 0.09 | 78 | 1017.1 |
| 20260507211009 | 49 | 258 | 0.0 | 2.6 | 0.00 | 0.09 | 0.09 | 79 | 1017.1 |
| 20260507210009 | 49 | 258 | 0.9 | 2.6 | 0.00 | 0.09 | 0.09 | 78 | 1017.2 |
| 20260507205008 | 50 | 258 | 0.9 | 2.6 | 0.00 | 0.09 | 0.09 | 78 | 1017.1 |
| 20260507204008 | 50 | 258 | 0.9 | 2.6 | 0.00 | 0.09 | 0.09 | 77 | 1017.1 |
| 20260507203008 | 50 | 258 | 0.9 | 2.6 | 0.00 | 0.09 | 0.09 | 77 | 1016.9 |
| 20260507202013 | 50 | 258 | 0.9 | 2.6 | 0.00 | 0.09 | 0.09 | 77 | 1016.9 |
| 20260507201013 | 50 | 258 | 0.9 | 2.6 | 0.00 | 0.09 | 0.09 | 77 | 1016.9 |
| 20260507200013 | 50 | 258 | 0.9 | 3.5 | 0.00 | 0.09 | 0.09 | 77 | 1016.8 |
| 20260507195013 | 50 | 261 | 0.9 | 2.6 | 0.00 | 0.09 | 0.09 | 77 | 1016.8 |
| 20260507194013 | 50 | 261 | 0.0 | 2.6 | 0.00 | 0.09 | 0.09 | 77 | 1016.7 |
| 20260507193013 | 51 | 261 | 0.9 | 2.6 | 0.00 | 0.09 | 0.09 | 77 | 1016.7 |
| 20260507192013 | 51 | 261 | 0.9 | 2.6 | 0.00 | 0.09 | 0.09 | 76 | 1016.7 |
| 20260507191013 | 51 | 261 | 0.9 | 5.2 | 0.00 | 0.09 | 0.09 | 76 | 1016.5 |
| 20260507190013 | 51 | 255 | 0.9 | 2.6 | 0.00 | 0.09 | 0.09 | 76 | 1016.3 |
| 20260507185013 | 51 | 255 | 0.9 | 6.1 | 0.00 | 0.09 | 0.09 | 76 | 1016.3 |
| 20260507184013 | 51 | 257 | 1.7 | 3.5 | 0.00 | 0.09 | 0.09 | 75 | 1016.3 |
| 20260507183013 | 51 | 251 | 0.9 | 3.5 | 0.00 | 0.09 | 0.09 | 76 | 1016.2 |
| 20260507182013 | 51 | 250 | 0.9 | 3.5 | 0.00 | 0.09 | 0.09 | 75 | 1016.0 |
| 20260507181013 | 51 | 250 | 1.7 | 3.5 | 0.00 | 0.09 | 0.09 | 75 | 1015.8 |
| 20260507180012 | 51 | 250 | 2.6 | 6.1 | 0.00 | 0.09 | 0.09 | 74 | 1015.9 |
| 20260507175013 | 52 | 253 | 2.6 | 6.1 | 0.00 | 0.09 | 0.09 | 74 | 1015.9 |
| 20260507174013 | 52 | 288 | 2.6 | 6.1 | 0.00 | 0.09 | 0.09 | 73 | 1015.9 |
| 20260507173013 | 52 | 249 | 3.5 | 7.8 | 0.00 | 0.09 | 0.09 | 73 | 1015.7 |
| 20260507172013 | 52 | 251 | 4.3 | 7.8 | 0.00 | 0.09 | 0.09 | 72 | 1015.7 |
| 20260507171012 | 53 | 272 | 3.5 | 8.7 | 0.00 | 0.09 | 0.09 | 72 | 1015.6 |
| 20260507170012 | 53 | 266 | 2.6 | 7.8 | 0.00 | 0.09 | 0.09 | 72 | 1015.6 |
| 20260507165012 | 53 | 265 | 2.6 | 6.1 | 0.00 | 0.09 | 0.09 | 71 | 1015.6 |